Time,TemperatureF,DewpointF,PressureIn,WindDirection,WindDirectionDegrees,WindSpeedMPH,WindSpeedGustMPH,Humidity,HourlyPrecipIn,Conditions,Clouds,dailyrainin,SoftwareType,DateUTC
2013-01-30 00:09:00,31.9,30.0,31.87,ENE,64,0.0,-999.0,93,-99.99,,,0.13,weatherlink.com 1.10,2013-01-30 05:09:00,
2013-01-30 00:22:00,31.9,30.0,31.87,ENE,64,0.0,-999.0,93,-99.99,,,0.00,weatherlink.com 1.10,2013-01-30 05:22:00,
2013-01-30 00:37:00,31.9,30.0,31.87,ENE,64,0.0,-999.0,93,-99.99,,,0.00,weatherlink.com 1.10,2013-01-30 05:37:00,
2013-01-30 00:52:00,32.0,30.0,31.87,ENE,64,0.0,-999.0,93,-99.99,,,0.01,weatherlink.com 1.10,2013-01-30 05:52:00,
2013-01-30 01:09:00,32.1,30.0,31.87,ENE,64,0.0,-999.0,93,-99.99,,,0.01,weatherlink.com 1.10,2013-01-30 06:09:00,
2013-01-30 01:22:00,32.1,30.0,31.87,ENE,64,0.0,-999.0,93,-99.99,,,0.03,weatherlink.com 1.10,2013-01-30 06:22:00,
2013-01-30 01:37:00,32.1,30.0,31.87,ENE,64,0.0,-999.0,93,-99.99,,,0.04,weatherlink.com 1.10,2013-01-30 06:37:00,
2013-01-30 01:52:00,32.1,30.0,31.87,ENE,64,0.0,-999.0,93,-99.99,,,0.05,weatherlink.com 1.10,2013-01-30 06:52:00,
2013-01-30 02:09:00,32.1,30.0,31.87,ENE,64,0.0,-999.0,93,-99.99,,,0.06,weatherlink.com 1.10,2013-01-30 07:09:00,
2013-01-30 02:22:00,32.1,30.0,31.87,ENE,64,0.0,-999.0,93,-99.99,,,0.06,weatherlink.com 1.10,2013-01-30 07:22:00,
2013-01-30 02:37:00,32.1,30.0,31.87,ENE,64,0.0,-999.0,93,-99.99,,,0.07,weatherlink.com 1.10,2013-01-30 07:37:00,
2013-01-30 02:52:00,32.3,31.0,31.87,ENE,64,0.0,-999.0,93,-99.99,,,0.07,weatherlink.com 1.10,2013-01-30 07:52:00,
2013-01-30 03:09:00,32.1,30.0,31.87,ENE,64,0.0,-999.0,93,-99.99,,,0.07,weatherlink.com 1.10,2013-01-30 08:09:00,
2013-01-30 03:22:00,32.0,30.0,31.87,ENE,64,0.0,-999.0,93,-99.99,,,0.07,weatherlink.com 1.10,2013-01-30 08:22:00,
2013-01-30 03:37:00,32.0,30.0,31.87,ENE,64,0.0,-999.0,93,-99.99,,,0.07,weatherlink.com 1.10,2013-01-30 08:37:00,
2013-01-30 03:52:00,32.3,31.0,31.87,ENE,64,0.0,-999.0,93,-99.99,,,0.07,weatherlink.com 1.10,2013-01-30 08:52:00,
2013-01-30 04:09:00,32.2,30.0,31.87,ENE,64,0.0,-999.0,93,-99.99,,,0.07,weatherlink.com 1.10,2013-01-30 09:09:00,
2013-01-30 04:22:00,32.1,30.0,31.87,ENE,64,0.0,-999.0,93,-99.99,,,0.07,weatherlink.com 1.10,2013-01-30 09:22:00,
2013-01-30 04:37:00,32.0,30.0,31.87,ENE,64,0.0,-999.0,93,-99.99,,,0.07,weatherlink.com 1.10,2013-01-30 09:37:00,
2013-01-30 04:52:00,32.0,30.0,31.87,ENE,64,0.0,-999.0,93,-99.99,,,0.07,weatherlink.com 1.10,2013-01-30 09:52:00,
2013-01-30 05:09:00,32.0,30.0,31.87,ENE,64,0.0,-999.0,93,-99.99,,,0.07,weatherlink.com 1.10,2013-01-30 10:09:00,
2013-01-30 05:22:00,32.2,30.0,31.87,ENE,64,0.0,-999.0,93,-99.99,,,0.07,weatherlink.com 1.10,2013-01-30 10:22:00,
2013-01-30 05:37:00,32.0,30.0,31.87,ENE,64,0.0,-999.0,93,-99.99,,,0.07,weatherlink.com 1.10,2013-01-30 10:37:00,
2013-01-30 05:52:00,32.0,30.0,31.87,ENE,64,0.0,-999.0,93,-99.99,,,0.07,weatherlink.com 1.10,2013-01-30 10:52:00,
2013-01-30 06:09:00,32.1,30.0,31.87,ENE,64,0.0,-999.0,93,-99.99,,,0.08,weatherlink.com 1.10,2013-01-30 11:09:00,
2013-01-30 06:22:00,32.0,30.0,31.87,ENE,64,0.0,-999.0,93,-99.99,,,0.08,weatherlink.com 1.10,2013-01-30 11:22:00,
2013-01-30 06:37:00,32.5,31.0,31.87,ENE,64,0.0,-999.0,94,-99.99,,,0.08,weatherlink.com 1.10,2013-01-30 11:37:00,
2013-01-30 06:52:00,32.1,30.0,31.87,ENE,64,0.0,-999.0,93,-99.99,,,0.08,weatherlink.com 1.10,2013-01-30 11:52:00,
2013-01-30 07:09:00,32.0,30.0,31.87,ENE,64,0.0,-999.0,93,-99.99,,,0.08,weatherlink.com 1.10,2013-01-30 12:09:00,
2013-01-30 07:22:00,32.0,30.0,31.87,ENE,64,0.0,-999.0,93,-99.99,,,0.08,weatherlink.com 1.10,2013-01-30 12:22:00,
2013-01-30 07:37:00,32.0,30.0,31.87,ENE,64,0.0,-999.0,93,-99.99,,,0.08,weatherlink.com 1.10,2013-01-30 12:37:00,
2013-01-30 07:52:00,32.1,30.0,31.87,ENE,64,0.0,-999.0,93,-99.99,,,0.09,weatherlink.com 1.10,2013-01-30 12:52:00,
2013-01-30 08:09:00,32.2,30.0,31.87,ENE,64,0.0,-999.0,93,-99.99,,,0.09,weatherlink.com 1.10,2013-01-30 13:09:00,
2013-01-30 08:22:00,32.2,30.0,31.87,ENE,64,0.0,-999.0,93,-99.99,,,0.09,weatherlink.com 1.10,2013-01-30 13:22:00,
2013-01-30 08:37:00,32.4,31.0,0.00,ENE,64,0.0,-999.0,93,-99.99,,,0.09,weatherlink.com 1.10,2013-01-30 13:37:00,
2013-01-30 08:52:00,32.7,31.0,0.00,ENE,64,0.0,-999.0,94,-99.99,,,0.09,weatherlink.com 1.10,2013-01-30 13:52:00,
2013-01-30 09:09:00,32.7,31.0,0.00,ENE,64,0.0,-999.0,94,-99.99,,,0.09,weatherlink.com 1.10,2013-01-30 14:09:00,
2013-01-30 09:22:00,33.0,32.0,0.00,ENE,64,0.0,-999.0,94,-99.99,,,0.09,weatherlink.com 1.10,2013-01-30 14:22:00,
2013-01-30 09:37:00,33.9,32.0,0.00,ENE,64,0.0,-999.0,94,-99.99,,,0.10,weatherlink.com 1.10,2013-01-30 14:37:00,
2013-01-30 09:52:00,34.8,33.0,0.00,ENE,64,0.0,-999.0,94,-99.99,,,0.10,weatherlink.com 1.10,2013-01-30 14:52:00,
2013-01-30 10:09:00,35.4,34.0,0.00,ENE,64,0.0,-999.0,94,-99.99,,,0.11,weatherlink.com 1.10,2013-01-30 15:09:00,
2013-01-30 10:22:00,37.2,36.0,0.00,East,96,0.0,-999.0,94,-99.99,,,0.11,weatherlink.com 1.10,2013-01-30 15:22:00,
2013-01-30 10:37:00,40.5,39.0,0.00,SSE,159,0.0,-999.0,95,-99.99,,,0.11,weatherlink.com 1.10,2013-01-30 15:37:00,
2013-01-30 10:52:00,43.3,42.0,0.00,ESE,115,0.0,-999.0,95,-99.99,,,0.12,weatherlink.com 1.10,2013-01-30 15:52:00,
2013-01-30 11:09:00,44.4,43.0,0.00,ENE,61,0.0,-999.0,95,-99.99,,,0.12,weatherlink.com 1.10,2013-01-30 16:09:00,
2013-01-30 11:22:00,45.8,45.0,0.00,SE,126,0.0,-999.0,95,-99.99,,,0.13,weatherlink.com 1.10,2013-01-30 16:22:00,
2013-01-30 11:37:00,47.5,46.0,0.00,East,79,0.0,-999.0,95,-99.99,,,0.13,weatherlink.com 1.10,2013-01-30 16:37:00,
2013-01-30 11:52:00,48.9,48.0,0.00,SE,136,0.0,-999.0,95,-99.99,,,0.13,weatherlink.com 1.10,2013-01-30 16:52:00,
2013-01-30 12:09:00,50.2,49.0,0.00,ENE,76,0.0,-999.0,95,-99.99,,,0.14,weatherlink.com 1.10,2013-01-30 17:09:00,
2013-01-30 12:22:00,50.7,49.0,0.00,SSE,148,0.0,-999.0,95,-99.99,,,0.14,weatherlink.com 1.10,2013-01-30 17:22:00,
2013-01-30 12:37:00,51.3,50.0,0.00,SSE,164,0.0,-999.0,96,-99.99,,,0.14,weatherlink.com 1.10,2013-01-30 17:37:00,
2013-01-30 12:52:00,51.9,51.0,0.00,South,169,0.0,-999.0,95,-99.99,,,0.14,weatherlink.com 1.10,2013-01-30 17:52:00,
2013-01-30 13:09:00,52.0,51.0,0.00,SE,126,0.0,-999.0,95,-99.99,,,0.14,weatherlink.com 1.10,2013-01-30 18:09:00,
2013-01-30 13:22:00,51.8,51.0,0.00,South,176,0.0,-999.0,95,-99.99,,,0.14,weatherlink.com 1.10,2013-01-30 18:22:00,
2013-01-30 13:37:00,52.1,51.0,0.00,ESE,117,0.0,-999.0,95,-99.99,,,0.14,weatherlink.com 1.10,2013-01-30 18:37:00,
2013-01-30 13:52:00,52.4,51.0,0.00,South,182,0.0,-999.0,95,-99.99,,,0.14,weatherlink.com 1.10,2013-01-30 18:52:00,
2013-01-30 14:09:00,52.3,51.0,0.00,SSE,165,0.0,-999.0,95,-99.99,,,0.14,weatherlink.com 1.10,2013-01-30 19:09:00,
2013-01-30 14:22:00,52.6,51.0,0.00,SSE,163,0.0,-999.0,95,-99.99,,,0.14,weatherlink.com 1.10,2013-01-30 19:22:00,
2013-01-30 14:37:00,53.4,52.0,0.00,SSE,148,0.0,-999.0,96,-99.99,,,0.14,weatherlink.com 1.10,2013-01-30 19:37:00,
2013-01-30 14:52:00,54.9,54.0,0.00,SW,225,0.0,-999.0,96,-99.99,,,0.14,weatherlink.com 1.10,2013-01-30 19:52:00,
2013-01-30 15:08:00,55.5,54.0,0.00,SSE,163,0.0,-999.0,96,-99.99,,,0.14,weatherlink.com 1.10,2013-01-30 20:08:00,
2013-01-30 15:22:00,56.4,55.0,0.00,South,186,0.0,-999.0,96,-99.99,,,0.14,weatherlink.com 1.10,2013-01-30 20:22:00,
2013-01-30 15:37:00,56.4,55.0,0.00,ESE,119,1.0,-999.0,95,-99.99,,,0.14,weatherlink.com 1.10,2013-01-30 20:37:00,
2013-01-30 15:52:00,56.6,55.0,0.00,ENE,72,2.0,-999.0,95,-99.99,,,0.14,weatherlink.com 1.10,2013-01-30 20:52:00,
2013-01-30 16:08:00,56.8,55.0,0.00,North,360,0.0,-999.0,95,-99.99,,,0.14,weatherlink.com 1.10,2013-01-30 21:08:00,
2013-01-30 16:22:00,56.7,55.0,0.00,East,94,0.0,-999.0,94,-99.99,,,0.14,weatherlink.com 1.10,2013-01-30 21:22:00,
2013-01-30 16:37:00,56.9,55.0,0.00,SW,225,3.0,-999.0,93,-99.99,,,0.14,weatherlink.com 1.10,2013-01-30 21:37:00,
2013-01-30 16:52:00,57.0,55.0,0.00,WNW,288,2.0,-999.0,93,-99.99,,,0.14,weatherlink.com 1.10,2013-01-30 21:52:00,
2013-01-30 17:08:00,57.4,55.0,0.00,SW,234,0.0,-999.0,92,-99.99,,,0.14,weatherlink.com 1.10,2013-01-30 22:08:00,
2013-01-30 17:22:00,57.4,55.0,0.00,SE,136,0.0,-999.0,92,-99.99,,,0.14,weatherlink.com 1.10,2013-01-30 22:22:00,
2013-01-30 17:37:00,57.3,55.0,0.00,South,172,1.0,-999.0,91,-99.99,,,0.14,weatherlink.com 1.10,2013-01-30 22:37:00,
2013-01-30 17:52:00,57.3,55.0,0.00,SW,220,1.0,-999.0,90,-99.99,,,0.14,weatherlink.com 1.10,2013-01-30 22:52:00,
2013-01-30 18:09:00,57.6,55.0,0.00,ESE,119,4.0,-999.0,90,-99.99,,,0.14,weatherlink.com 1.10,2013-01-30 23:09:00,
2013-01-30 18:22:00,57.4,55.0,0.00,East,89,4.0,-999.0,90,-99.99,,,0.14,weatherlink.com 1.10,2013-01-30 23:22:00,
2013-01-30 18:37:00,57.6,55.0,0.00,East,99,2.0,-999.0,90,-99.99,,,0.14,weatherlink.com 1.10,2013-01-30 23:37:00,
2013-01-30 18:52:00,57.8,55.0,0.00,SW,231,2.0,-999.0,90,-99.99,,,0.14,weatherlink.com 1.10,2013-01-30 23:52:00,
2013-01-30 19:08:00,58.4,55.0,0.00,South,179,0.0,-999.0,89,-99.99,,,0.14,weatherlink.com 1.10,2013-01-31 00:08:00,
2013-01-30 19:22:00,58.6,55.0,0.00,NW,322,4.0,-999.0,89,-99.99,,,0.14,weatherlink.com 1.10,2013-01-31 00:22:00,
2013-01-30 19:37:00,58.5,55.0,0.00,WSW,246,3.0,-999.0,88,-99.99,,,0.14,weatherlink.com 1.10,2013-01-31 00:37:00,
2013-01-30 19:52:00,59.0,56.0,0.00,South,183,0.0,-999.0,88,-99.99,,,0.14,weatherlink.com 1.10,2013-01-31 00:52:00,
2013-01-30 20:08:00,59.0,56.0,0.00,ESE,115,1.0,-999.0,88,-99.99,,,0.14,weatherlink.com 1.10,2013-01-31 01:08:00,
2013-01-30 20:22:00,59.0,56.0,0.00,South,178,0.0,-999.0,89,-99.99,,,0.14,weatherlink.com 1.10,2013-01-31 01:22:00,
2013-01-30 20:36:00,59.0,56.0,0.00,South,184,2.0,-999.0,89,-99.99,,,0.14,weatherlink.com 1.10,2013-01-31 01:36:00,
2013-01-30 20:51:00,58.6,55.0,0.00,SSW,211,0.0,-999.0,89,-99.99,,,0.14,weatherlink.com 1.10,2013-01-31 01:51:00,
2013-01-30 21:06:00,58.5,56.0,0.00,NE,43,0.0,-999.0,90,-99.99,,,0.14,weatherlink.com 1.10,2013-01-31 02:06:00,
2013-01-30 21:22:00,58.3,56.0,0.00,South,182,6.0,-999.0,90,-99.99,,,0.14,weatherlink.com 1.10,2013-01-31 02:22:00,
2013-01-30 21:37:00,58.5,55.0,0.00,SW,227,3.0,-999.0,89,-99.99,,,0.14,weatherlink.com 1.10,2013-01-31 02:37:00,
2013-01-30 21:52:00,58.7,56.0,0.00,SSE,161,0.0,-999.0,89,-99.99,,,0.14,weatherlink.com 1.10,2013-01-31 02:52:00,
2013-01-30 22:09:00,58.3,55.0,0.00,South,182,0.0,-999.0,89,-99.99,,,0.14,weatherlink.com 1.10,2013-01-31 03:09:00,
2013-01-30 22:22:00,58.0,55.0,0.00,ENE,61,0.0,-999.0,90,-99.99,,,0.14,weatherlink.com 1.10,2013-01-31 03:22:00,
2013-01-30 22:37:00,57.6,55.0,0.00,SE,146,1.0,-999.0,91,-99.99,,,0.15,weatherlink.com 1.10,2013-01-31 03:37:00,
2013-01-30 22:52:00,57.2,55.0,0.00,West,269,0.0,-999.0,92,-99.99,,,0.15,weatherlink.com 1.10,2013-01-31 03:52:00,
2013-01-30 23:09:00,57.0,55.0,0.00,ESE,110,0.0,-999.0,93,-99.99,,,0.15,weatherlink.com 1.10,2013-01-31 04:09:00,
2013-01-30 23:22:00,56.8,55.0,0.00,South,182,4.0,-999.0,93,-99.99,,,0.15,weatherlink.com 1.10,2013-01-31 04:22:00,
2013-01-30 23:37:00,57.0,55.0,0.00,SSE,152,0.0,-999.0,93,-99.99,,,0.15,weatherlink.com 1.10,2013-01-31 04:37:00,
2013-01-30 23:52:00,56.9,55.0,0.00,WSW,255,0.0,-999.0,94,-99.99,,,0.15,weatherlink.com 1.10,2013-01-31 04:52:00,